Regional Weather Roundup
Issued by NWS

Home | Current Version | Previous Version | Text Only | Print | Product List | Glossary On
Versions: 1 2 3 4 5 6 7 8 9 10 11 12 13 14 15 16 17 18 19 20 21 22 23 24 25 26 27 28
000
ASUS46 KPQR 290210
RWROR

OREGON REGIONAL WEATHER ROUNDUP
NATIONAL WEATHER SERVICE PORTLAND OR
700 PM PDT SAT MAY 28 2016

NOTE: "FAIR" INDICATES FEW OR NO CLOUDS BELOW 12,000 FEET WITH
NO SIGNIFICANT WEATHER AND/OR OBSTRUCTIONS TO VISIBILITY.

ORZ001>013-290300-
NORTHWEST OREGON


CITY           SKY/WX    TMP DP  RH WIND       PRES   REMARKS
ASTORIA        CLOUDY    57  51  80 SW13      30.05S
NEWPORT        SUNNY     57  50  77 W3        30.11S
PORTLAND       MOSUNNY   72  45  37 NW3       30.00S
VANCOUVER WA   PTSUNNY   70  46  42 W3        29.99F
SCAPPOOSE      MOSUNNY   68  47  46 N6        30.00S
HILLSBORO      MOSUNNY   70  47  43 NW6       30.00S
AURORA         MOSUNNY   70  47  43 SW8       30.01S
MCMINNVILLE    SUNNY     69  47  45 SW13      30.01S
SALEM          MOSUNNY   71  44  37 NW13      30.00R
CORVALLIS        N/A     70  41  35 NW12      30.03S
EUGENE         MOSUNNY   71  49  45 NE8       30.01S
$$

ORZ021-028-290300-
SOUTHWEST OREGON


CITY           SKY/WX    TMP DP  RH WIND       PRES   REMARKS
NORTH BEND     SUNNY     61  50  67 N14       30.09S
BROOKINGS      SUNNY     65  44  46 NW15G22   29.95S
ROSEBURG       SUNNY     76  44  32 NW10G17   29.99R
SEXTON SUMMIT  SUNNY     61  41  47 VRB5G23   30.04S
MEDFORD        SUNNY     79  40  24 N18       29.93R
$$

ORZ014>016-041-290300-
COLUMBIA GORGE


CITY           SKY/WX    TMP DP  RH WIND       PRES   REMARKS
TROUTDALE      SUNNY     72  43  35 CALM      30.00S
THE DALLES     MOSUNNY   72  41  32 NW13G20   29.95S
$$

ORZ029>031-041-044-049-050-061>064-502-503-505>511-290300-
EASTERN OREGON


CITY           SKY/WX    TMP DP  RH WIND       PRES   REMARKS
REDMOND        MOSUNNY   70  33  25 N12       29.97R
BEND           MOSUNNY   70  34  26 NW8       29.98R
PRINEVILLE     PTSUNNY   70  34  26 NW9       29.98S
KLAMATH FALLS  SUNNY     71  29  21 N6        29.99S
LAKEVIEW       SUNNY     66  27  22 SE5       30.03S
HERMISTON      MOSUNNY   74  41  30 E6        29.94S
PENDLETON      MOSUNNY   71  37  28 N10       29.97R
JOHN DAY         N/A    N/A N/A N/A MISG        N/A
MEACHAM        NOT AVBL
LA GRANDE      SUNNY     68  36  30 CALM      29.99R
BAKER CITY     MOSUNNY   61  39  44 W8        30.00S
BURNS          SUNNY     66  28  24 SE7       30.01S
ROME             N/A     72  17  12 CALM      29.99S
ONTARIO        SUNNY     72  29  20 E3        29.99S
$$




USA.gov is the U.S. government's official web portal to all federal, state and local government web resources and services.